Miscellaneous Local Product
Issued by NWS North Platte, NE

Home | Current Version | Previous Version | Text Only | Print | Product List | Glossary On
Versions: 1 2 3 4 5 6 7 8 9 10 11 12 13 14 15 16 17 18 19 20 21 22 23 24 25 26 27 28 29 30 31 32 33 34 35 36 37 38 39 40 41 42 43 44 45 46 47 48 49 50
411
AXUS43 KLBF 041410
MISLBF


WESTERN AND NORTH CENTRAL NEBRASKA HOURLY WEATHER ROUNDUP
NATIONAL WEATHER SERVICE NORTH PLATTE NE
900 AM CDT WED MAY 04 2016

NOTE: "FAIR" INDICATES FEW OR NO CLOUDS BELOW 12,000 FEET WITH NO
SIGNIFICANT WEATHER AND/OR OBSTRUCTIONS TO VISIBILITY.

NOTE: STATIONS NOT REPORTING VARIABLES SUCH AS SKY/WEATHER OR
PRESSURE ARE PROVIDED BY RAWS AND APRS NETWORKS AND ARE NOT UNDER
NATIONAL WEATHER SERVICE QUALITY CONTROL.

...OBSERVATIONS IN AND NEAR THE EASTERN PANHANDLE OF NEBRASKA...

CITY           SKY/WX    TMP DP  RH WIND       PRES   REMARKS
PINE RIDGE       N/A    N/A N/A N/A MISG      30.19R
CHADRON        SUNNY     51  43  74 W5        30.19S
ALLIANCE       SUNNY     51  41  68 MISG      30.20R
SIDNEY         SUNNY     51  42  71 NW7       30.22R
CRESCENT LAKE    N/A     56  45  67 N7          N/A
BIG SPRINGS      N/A     44  41  89 W5          N/A
$$

...OBSERVATIONS IN NORTHERN NEBRASKA AND FAR SOUTHERN SOUTH DAKOTA...

CITY           SKY/WX    TMP DP  RH WIND       PRES   REMARKS
WINNER         FAIR      51  38  60 W5        30.15R
VALENTINE      SUNNY     53  38  56 NW3       30.16R
THEDFORD       SUNNY     55  44  66 NW3       30.17S
AINSWORTH      SUNNY     53  37  56 NW3       30.15R
O`NEILL        SUNNY     53  36  50 N8        30.13R
ORD            SUNNY     52  41  66 NW8       30.11R
BROKEN BOW     SUNNY     55  37  50 N9        30.14R
VALENTINE NWR    N/A     51  42  70 NW6         N/A
BUTTE            N/A     51  35  55 NW5         N/A
HALSEY           N/A     53  40  62 NW3         N/A
CHAMBERS         N/A     60  38  44 NW3         N/A
EWING            N/A     53  37  54 N8          N/A
$$

...OBSERVATIONS IN SOUTHWEST NEBRASKA AND FAR NORTHEAST COLORADO...

CITY           SKY/WX    TMP DP  RH WIND       PRES   REMARKS
HOLYOKE        FAIR      59  41  51 NW3       30.19S
IMPERIAL       SUNNY     53  41  63 N14       30.18R
OGALLALA       SUNNY     55  43  64 CALM      30.18S
NORTH PLATTE   SUNNY     52  44  74 NW6       30.16R
MCCOOK         SUNNY     54  44  69 NW6       30.16R
LEXINGTON      SUNNY     52  44  73 N6        30.14S
PAXTON           N/A     46  43  89 W3          N/A
STAPLETON        N/A     54  43  66 CALM        N/A
GOTHENBURG       N/A     48  39  72 W3          N/A
CALLAWAY         N/A     49  41  75 NW6         N/A
$$

...OBSERVATIONS IN CENTRAL LINCOLN COUNTY AREA...

CITY           SKY/WX    TMP DP  RH WIND       PRES   REMARKS
N.P. AIRPORT   SUNNY     52  44  74 NW6       30.16R
N.P. DOWNTOWN    N/A     53  43  70 CALM        N/A
N.P. SOUTHEAST   N/A     53  43  68 CALM        N/A
N.P. HILLCREST   N/A     52  45  78 CALM        N/A
$$

...SOME OBSERVATIONS FROM AROUND THE REGION...

CITY           SKY/WX    TMP DP  RH WIND       PRES   REMARKS
DENVER         SUNNY     53  31  42 SW14      30.26R
LARAMIE        SUNNY     40  33  76 S6        30.33R
CHEYENNE       SUNNY     50  36  58 W10       30.28R
SCOTTSBLUFF    SUNNY     50  41  71 NW10      30.22R
RAPID CITY     SUNNY     57  40  52 W5        30.17R
BISMARCK       SUNNY     48  36  63 E3        30.13S
PIERRE         SUNNY     54  33  45 CALM      30.14R
SIOUX FALLS    SUNNY     53  37  54 NE7       30.08R
OMAHA          SUNNY     54  38  54 N14       30.03R
GRAND ISLAND   SUNNY     54  37  52 N13       30.11R
KANSAS CITY    SUNNY     58  39  49 N14G20    29.94R
WICHITA        SUNNY     61  46  57 NW14      30.03R
OKLAHOMA CITY  SUNNY     62  48  60 NW9       30.06R
DALLAS         SUNNY     65  54  67 W10       30.07S
AMARILLO       SUNNY     54  38  54 NW14      30.22S
DODGE CITY     SUNNY     55  41  59 NW12      30.13R
HAYS           SUNNY     55  41  58 N15       30.11R
GOODLAND       SUNNY     57  39  51 W9        30.19R
$$




USA.gov is the U.S. government's official web portal to all federal, state and local government web resources and services.